INTERBALL AURORA

Satellite information

Favourite Embed

Satellite Type and Status

PAYLOADIN ORBIT

Key statistics

Satellite INTERBALL AURORA at a glance.

Uptime

10659

Days in orbit

Revolutions

≈ 4.1

Per day

Orbit

HEO

HEO

Inclination

62.7

Latest

Satellite identification and parameters

Extended collection of information and parameters for INTERBALL AURORA.

Object identification

Identified? True

Debris? False

Object name: INTERBALL AURORA

International designator: 1996-050C

Object number (NORAD): 24293

Object ID (CCSDS): 24293

Country: COMMONWEALTH OF INDEPENDENT STATES (CIS)

Current information (Y/N): Y

RCS size: LARGE

Orbital parameters

Period: 347.208 minutes

Inclination: 62.6809 deg

SMA: 16363.887 km

Apoapsis: 19163.09 km

Periapsis: 808.414 km

RAAN: 248.1996 deg

Eccentricy: 0.56082871

Argument of periapsis: 265.6844 deg

Mean anomaly: 31.8949 deg

Mean motion: 4.14737251 rev/day

Mean motion (dot): 0.00000029 rev/day2

B* drag term: 0.0 1/REarth

Two-line elements (TLE)

Creation date: Oct. 31, 2025, 3 a.m.

Reference frame: TEME

Reference center: EARTH

Epoch: Oct. 29, 2025, 1:15 p.m. UTC

TLE line 0: 0 INTERBALL AURORA

TLE line 1: 1 24293U 96050C 25302.55223085 .00000029 00000-0 00000-0 0 9993

TLE line 2: 2 24293 62.6809 248.1996 5608287 265.6844 31.8949 4.14737251441752

Live tracking on map

Real-time ground track for satellite INTERBALL AURORA.

In-orbit conjunctions

There are no conjunctions computed for INTERBALL AURORA, at the moment. Check back to stay up to date, as we update our databases every day.

Go to all conjunctions

Associated space launch

Interbol 2 and Magin 5 are satellites studying the magnetosphere. MuSat 1 is an experimental vehicle, intended to evaluate in-orbit behaviour of low-cost space technologies.

INTERBALL AURORA was lifted into orbit during the mission ‘Molniya-M | Interbol 2, Magin 5 & MuSat 1’, on board a Molniya-M space rocket.

The launch took place on Aug. 29, 1996, 5:22 a.m. from 43/3 (43L).

For more information about the launch, click the button.

Launch to space Molniya-M | Interbol 2, Magin 5 & MuSat 1
Molniya-M | Interbol 2, Magin 5 & MuSat 1

Agency: N/A

Status: Launch Successful

Launch date: Aug. 29, 1996, 5:22 a.m. UTC

Rocket: Molniya-M

Launch pad: 43/3 (43L)

Location: Plesetsk Cosmodrome, Russian Federation

...

Latest news about this satellite

There are no fresh news available about this satellite. Check back as we update our databases every day.


Newsletter sign-up

Weekly statistics, charts and insights to help you stay on top of the space industry.